Hourly Data Report for October 03, 2015

All times are specified in Local Standard Time (LST). Add 1 hour to adjust for Daylight Saving Time where and when it is observed.

KUGLUKTUK A
NUNAVUT

67°49'00.000" N
115°08'38.000" W
22.60 m
2300903
71938
YCO

Download Data

Hourly Data (October 2015)
Hourly Data Report for October 3, 2015
Temp Definition
°C
Dew Point Temp Definition
°C
Rel Hum Definition
%
Wind Dir Definition
10's deg

Wind Spd Definition
km/h
Visibility Definition
km
Stn Press Definition
kPa
Hmdx Definition


Wind Chill Definition


Weather Definition


TIME
00:00 Legend Double Dagger -1.8 -6.6 70 19 25 24.1 102.40   -8 LegendNANA
01:00 Legend Double Dagger -1.3 -6.3 69 20 24 24.1 102.37   -7 LegendNANA
02:00 Legend Double Dagger -1.0 -6.0 69 20 28 24.1 102.32   -8 Mainly Clear
03:00 Legend Double Dagger -0.3 -5.3 69 20 27 24.1 102.27   -7 LegendNANA
04:00 Legend Double Dagger -0.6 -5.0 72 20 28 24.1 102.26   -7 LegendNANA
05:00 Legend Double Dagger -0.3 -4.6 73 21 23 24.1 102.24   -6 Mainly Clear
06:00 Legend Double Dagger 0.3 -3.8 74 21 25 24.1 102.21     LegendNANA
07:00 Legend Double Dagger 0.1 -3.3 78 22 20 24.1 102.20     LegendNANA
08:00 Legend Double Dagger 0.5 -2.9 78 22 19 24.1 102.19     Mostly Cloudy
09:00 Legend Double Dagger 1.1 -2.5 77 23 17 24.1 102.20     LegendNANA
10:00 Legend Double Dagger 1.8 -2.3 74 25 19 24.1 102.16     LegendNANA
11:00 Legend Double Dagger 2.2 -2.3 72 27 22 24.1 102.19     Mostly Cloudy
12:00 Legend Double Dagger 2.3 -2.6 70 27 22 24.1 102.20     LegendNANA
13:00 Legend Double Dagger 2.8 -2.7 67 26 21 24.1 102.19     LegendNANA
14:00 Legend Double Dagger 2.9 -2.8 66 27 17 24.1 102.16     Mostly Cloudy
15:00 Legend Double Dagger 4.3 -2.8 60 26 14 24.1 102.09     LegendNANA
16:00 Legend Double Dagger 3.5 -2.5 65 26 4 24.1 102.06     LegendNANA
17:00 Legend Double Dagger 2.7 -2.0 71 15 7 24.1 102.00     Mostly Cloudy
18:00 Legend Double Dagger 3.3 -1.5 71 22 17 24.1 101.98     LegendNANA
19:00 Legend Double Dagger 3.1 -0.7 76 24 17 24.1 101.99     LegendNANA
20:00 Legend Double Dagger 2.2 -1.1 79 24 16 24.1 101.97     Cloudy
21:00 Legend Double Dagger 1.6 -1.5 80 22 15 24.1 101.92     LegendNANA
22:00 Legend Double Dagger 1.3 -1.4 82 23 14 24.1 101.87     LegendNANA
23:00 Legend Double Dagger 1.5 -0.8 85 20 13 24.1 101.81     Cloudy

Notes on Data Quality.

Legend

  • E = Estimated
  • M = Missing
  • NA = Not Available
  • ‡ = Partner data that is not subject to review by the National Climate Archives
Date modified: